Location: Haulchin
(50.3172°N, 3.4360°E)
Time: 19:58:11
(UTC+00:00)

Cosmos 2333 Rocket - Pass Details

Date: 17 August 2024
Orbit: 838 x 863 km, 70.8° (Epoch: 09 September)

Event Time Altitude Azimuth Distance (km) Brightness Sun altitude
Exits shadow 22:02:22 21° 89° (E) 1,828 3.7 -22.4°
Drops below altitude 10° 22:05:48 10° 53° (NE) 2,511 4.8 -22.7°
Sets 22:08:47 0° 39° (NE) 3,454 5.7 -22.9°
